Regional Weather Roundup
Issued by NWS

Home | Current Version | Previous Version | Graphics & Text | Print | Product List | Glossary On
Versions: 1 2 3 4 5 6 7 8 9 10 11 12 13 14 15 16 17 18 19 20 21 22 23 24 25 26 27 28 29 30 31 32 33 34 35 36 37 38 39 40 41 42 43 44 45 46 47 48 49 50
000
ASUS44 KMEG 111210
RWRTN
TENNESSEE HOURLY STATE WEATHER ROUNDUP
NATIONAL WEATHER SERVICE MEMPHIS TN
600 AM CST THU FEB 11 2016

TNZ002-004-019-021-049-052-054-088>092-111300-
WEST TENNESSEE

CITY           SKY/WX    TMP DP  RH WIND       PRES   REMARKS
MEMPHIS INTL   CLEAR     30  14  51 E7        30.08R WCI  23
NWS MEMPHIS      N/A     29 N/A N/A MISG        N/A
JACKSON        CLEAR     24  16  71 E7        30.14R WCI  16
DYERSBURG      CLEAR     25  16  68 E12       30.17R WCI  14
UNION CITY     PTCLDY    23  19  86 NE6       30.17R WCI  16
PARIS          MOCLDY    21  18  86 E7        30.17S WCI  13
LEXINGTON      CLEAR     21  16  79 NE5       30.15R WCI  15
$$

TNZ008-025-027-028-033-062-065-066-111300-
NORTH MIDDLE TENNESSEE

CITY           SKY/WX    TMP DP  RH WIND       PRES   REMARKS
NASHVILLE      CLOUDY    26  20  77 E3        30.21R
CLARKSVILLE    CLOUDY    26  21  81 E7        30.21R WCI  18
SMYRNA         MOCLDY    24  21  88 E3        30.23R
COOKEVILLE     CLOUDY    25  19  80 CALM      30.16S
CROSSVILLE     CLOUDY    23  17  78 CALM      30.12R
$$

TNZ061-075-076-078-094-096-097-111300-
SOUTH MIDDLE TENNESSEE

CITY           SKY/WX    TMP DP  RH WIND       PRES   REMARKS
FAYETTEVILLE   PTCLDY    25  19  80 NE5       30.14R WCI  19
TULLAHOMA      CLOUDY    25  21  86 NE3       30.16R
WINCHESTER     PTCLDY    25  18  74 E6        30.16R WCI  18
MCMINNVILLE    CLOUDY    25  21  86 NE8       30.17R WCI  16
COLUMBIA       CLEAR     23  23 100 CALM      30.15R
SHELBYVILLE    CLOUDY    27  21  80 CALM      30.19R
$$

TNZ017-018-042-046-047-111300-
NORTHEAST TENNESSEE

CITY           SKY/WX    TMP DP  RH WIND       PRES   REMARKS
TRI CITIES     CLOUDY    19  12  74 SW5       30.15R WCI  12
$$

TNZ012-013-036-069-073-074-111300-
CENTRAL EAST TENNESSEE

CITY           SKY/WX    TMP DP  RH WIND       PRES   REMARKS
KNOXVILLE      CLOUDY    26  19  74 CALM      30.18R
OAK RIDGE      CLOUDY    27  18  69 CALM      30.20R
GATLINBURG     CLOUDY    25  16  68 CALM      30.18S
MORRISTOWN     CLOUDY    23  18  80 CALM      30.15S
$$

TNZ083-085-099-111300-
SOUTHEAST TENNESSEE

CITY           SKY/WX    TMP DP  RH WIND       PRES   REMARKS
CHATTANOOGA    MOCLDY    29  19  66 CALM      30.19S
$$

SKY/WX REPORTED AS FAIR MEANS FEW OR NO CLOUDS BELOW
12 THOUSAND FEET.




USA.gov is the U.S. government's official web portal to all federal, state and local government web resources and services.